Regional Weather Roundup
Issued by NWS

Home | Current Version | Previous Version | Graphics & Text | Print | Product List | Glossary On
Versions: 1 2 3 4 5 6 7 8 9 10 11 12 13 14 15 16 17 18 19 20 21 22 23 24 25 26 27 28 29 30 31 32 33 34 35 36 37 38 39 40 41 42 43 44 45 46 47 48 49 50
000
ASUS43 KMKX 230600
RWRWI

WISCONSIN REGIONAL WEATHER ROUNDUP
NATIONAL WEATHER SERVICE MILWAUKEE/SULLIVAN WI
100 AM CDT WED APR 23 2014

NOTE: "FAIR" INDICATES FEW OR NO CLOUDS BELOW 12,000 FEET WITH NO
SIGNIFICANT WEATHER AND/OR OBSTRUCTIONS TO VISIBILITY.

WIZ001-002-006>008-014>016-023>028-230700-
NORTHWEST WISCONSIN

CITY           SKY/WX    TMP DP  RH WIND       PRES   REMARKS
SUPERIOR ARPT  FAIR      31  27  84 NE3       30.12R
ASHLAND        FAIR      28  25  88 CALM      30.14R
HAYWARD        FAIR      27  23  85 CALM      30.12R
6HR MIN TEMP:  27; 6HR MAX TEMP:  50;

SIREN          FAIR      31  23  72 CALM      30.10S
RICE LAKE      FAIR      32  29  90 CALM      30.13R
LADYSMITH      FAIR      32  28  86 CALM      30.13R
EAU CLAIRE     NOT AVBL
MENOMONIE      FAIR      36  29  75 CALM      30.12R
NEW RICHMOND   FAIR      39  28  66 E5        30.10S
OSCEOLA        FAIR      38  27  63 E7        30.13R WCI  33
$$

WIZ003>005-009-010-017-018-230700-
NORTH CENTRAL WISCONSIN

CITY           SKY/WX    TMP DP  RH WIND       PRES   REMARKS
WOODRUFF       FAIR      24  13  62 CALM      30.11R
RHINELANDER    FAIR      26  22  84 CALM      30.12R
6HR MIN TEMP:  23; 6HR MAX TEMP:  42;

EAGLE RIVER    FAIR      26  25  98 CALM      30.11R
LAND O LAKES   FAIR      24  23  96 CALM      30.12R
PHILLIPS       FAIR      28  26  91 CALM      30.11R
TOMAHAWK       FAIR      26  22  88 CALM      30.11S
MEDFORD        FAIR      30  27  86 CALM      30.11R
MERRILL        FAIR      28  25  88 CALM      30.12R
$$

WIZ029-030-035-036-043>047-230700-
CENTRAL WISCONSIN

CITY           SKY/WX    TMP DP  RH WIND       PRES   REMARKS
WAUSAU         FAIR      33  26  75 CALM      30.11R
6HR MIN TEMP:  32; 6HR MAX TEMP:  47;

MOSINEE        FAIR      37  27  65 N3        30.12S
MARSHFIELD     FAIR      36  25  64 CALM      30.12R
6HR MIN TEMP:  36; 6HR MAX TEMP:  49;

STEVENS POINT  FAIR      29  24  82 CALM      30.13S
WAUPACA        FAIR      37  27  65 CALM      30.13S
WAUTOMA        NOT AVBL
WISC RAPIDS    FAIR      33  25  72 CALM      30.13S
6HR MIN TEMP:  32; 6HR MAX TEMP:  51;

CAMP DOUGLAS   NOT AVBL
$$

WIZ011>013-019>022-031-037>040-048>050-230700-
NORTHEAST WISCONSIN

CITY           SKY/WX    TMP DP  RH WIND       PRES   REMARKS
ANTIGO         FAIR      29  26  89 CALM      30.11R
STURGEON BAY   FAIR      30  21  69 N3        30.13R
6HR MIN TEMP:  30; 6HR MAX TEMP:  41;

GREEN BAY      FAIR      35  27  72 N3        30.13R
6HR MIN TEMP:  34; 6HR MAX TEMP:  47;

MANITOWOC      NOT AVBL
APPLETON       FAIR      34  27  75 N6        30.13R WCI  29
CLINTONVILLE   FAIR      32  27  80 CALM      30.13R
OSHKOSH        FAIR      35  26  69 N8        30.12R WCI  29
6HR MIN TEMP:  34; 6HR MAX TEMP:  49;

$$

WIZ032>034-041-042-053>061-230700-
SOUTHWEST WISCONSIN

CITY           SKY/WX    TMP DP  RH WIND       PRES   REMARKS
LA CROSSE      FAIR      43  28  55 SE5       30.12R
6HR MIN TEMP:  40; 6HR MAX TEMP:  56;

SPARTA         FAIR      31  25  78 CALM      30.13R
VIROQUA        FAIR      38  26  63 E7        30.10S WCI  32
BOSCOBEL       FAIR      39  30  70 NE7       30.11S WCI  34
6HR MIN TEMP:  36; 6HR MAX TEMP:  58;

PRAIRIE DU CHI FAIR      42  29  59 CALM      30.11R
PLATTEVILLE    FAIR      42  27  54 NE7       30.10R
$$

WIZ056-057-062-063-064-067-068-230700-
SOUTH CENTRAL WISCONSIN

CITY           SKY/WX    TMP DP  RH WIND       PRES   REMARKS
BARABOO/DELLS  FAIR      37  26  65 NE3       30.12R
LONE ROCK      NOT AVBL
WATERTOWN      FAIR      38  28  68 CALM      30.10R
MADISON        FAIR      37  27  67 NE7       30.12S WCI  32
6HR MIN TEMP:  37; 6HR MAX TEMP:  53;

MIDDLETON      FAIR      38  28  68 CALM      30.12R
MONROE         FAIR      40  29  65 E5        30.10R
JANESVILLE     FAIR      37  30  75 CALM      30.10R
$$

WIZ051-052-058>065-066-070>072-230700-
SOUTHEAST WISCONSIN

CITY           SKY/WX    TMP DP  RH WIND       PRES   REMARKS
MILWAUKEE      FAIR      35  29  78 NE12G18   30.12S WCI  27
6HR MIN TEMP:  35; 6HR MAX TEMP:  43;

WAUKESHA       FAIR      34  28  80 NE6       30.12R WCI  29
MILWAUKEE/TIMM FAIR      34  28  80 NE6       30.12S WCI  29
RACINE         FAIR      35  29  78 NE12      30.13R WCI  27
6HR MIN TEMP:  34; 6HR MAX TEMP:  42;

BURLINGTON     FAIR      32  28  84 NE7       30.11R WCI  25
KENOSHA        FAIR      33  28  81 NE6       30.11R WCI  28
6HR MIN TEMP:  32; 6HR MAX TEMP:  42;

FOND DU LAC    FAIR      37  29  72 N3        30.12R
6HR MIN TEMP:  36; 6HR MAX TEMP:  49;

SHEBOYGAN      FAIR      31  29  92 CALM      30.12R
6HR MIN TEMP:  31; 6HR MAX TEMP:  47;

WEST BEND      FAIR      34  30  86 NE5       30.11R WCI  30
JUNEAU         FAIR      38  26  62 N7        30.12R WCI  33
$$

LSZ147-162-230700-
LAKE SUPERIOR

STATION/POSITION TIME  TEMP    WIND        PRES    WAVE
                       AIR SEA DIR/SP/G            HT/PER
                 (UTC) (F)     (DEG/KT/KT) (MB)    (FT/S)
DEVILS ISLAND    0500   37     140/  9/ 10 1020.7R
PORT WING        0500   29     330/  4/  4 1020.0
SAXON HARBOR     0540           CALM  /  2 1020.0R
$$

LMZ867-665-643>646-230700-
LAKE MICHIGAN

STATION/POSITION TIME  TEMP    WIND        PRES    WAVE
                       AIR SEA DIR/SP/G            HT/PER
                 (UTC) (F)     (DEG/KT/KT) (MB)    (FT/S)
NORTHPORT PIER   0500   33     310/  9/ 12 1019.3R
SISTER BAY       0509   34      10/ 10/ 12   N/A
KEWAUNEE LAKESHO 0500   35     330/  4/  5 1019.9R
SHEBOYGAN LAKESH 0500   37      40/  9/ 10 1020.4R
PORT WASHINGTON  0540   37      20/  4/  9 1020.7R
MILWAUKEE LAKESH 0500   37      30/  8/ 11   N/A
KENOSHA   LAKESH 0500   38      40/ 11/ 14   N/A
$$

TC  - TEMPERATURE IN CELSIUS
VSB - VISIBILITY IN STATUTE MILES
WCI - WIND CHILL INDEX
HX  - HEAT INDEX




USA.gov is the U.S. government's official web portal to all federal, state and local government web resources and services.